Year,Month,Day,Hour,Minute,Value (Times are PST for windgust in km/hr)
2010,04,02,00,00,25.70
2010,04,02,00,01,25.70
2010,04,02,00,02,29.00
2010,04,02,00,03,33.80
2010,04,02,00,04,25.70
2010,04,02,00,05,30.60
2010,04,02,00,06,40.20
2010,04,02,00,07,27.40
2010,04,02,00,08,33.80
2010,04,02,00,09,35.40
2010,04,02,00,10,35.40
2010,04,02,00,11,30.60
2010,04,02,00,12,33.80
2010,04,02,00,13,29.00
2010,04,02,00,14,29.00
2010,04,02,00,15,32.20
2010,04,02,00,16,35.40
2010,04,02,00,17,29.00
2010,04,02,00,18,29.00
2010,04,02,00,19,32.20
2010,04,02,00,20,24.20
2010,04,02,00,21,30.60
2010,04,02,00,22,27.40
2010,04,02,00,23,32.20
2010,04,02,00,24,27.40
2010,04,02,00,25,25.70
2010,04,02,00,26,24.20
2010,04,02,00,27,29.00
2010,04,02,00,28,35.40
2010,04,02,00,29,24.20
2010,04,02,00,30,22.50
2010,04,02,00,31,22.50
2010,04,02,00,32,27.40
2010,04,02,00,33,32.20
2010,04,02,00,34,33.80
2010,04,02,00,35,25.70
2010,04,02,00,36,29.00
2010,04,02,00,37,30.60
2010,04,02,00,38,25.70
2010,04,02,00,39,29.00
2010,04,02,00,40,32.20
2010,04,02,00,41,29.00
2010,04,02,00,42,19.30
2010,04,02,00,43,37.00
2010,04,02,00,44,24.20
2010,04,02,00,45,19.30
2010,04,02,00,46,29.00
2010,04,02,00,47,32.20
2010,04,02,00,48,32.20
2010,04,02,00,49,33.80
2010,04,02,00,50,33.80
2010,04,02,00,51,32.20
2010,04,02,00,52,29.00
2010,04,02,00,53,32.20
2010,04,02,00,54,25.70
2010,04,02,00,55,33.80
2010,04,02,00,56,30.60
2010,04,02,00,57,25.70
2010,04,02,00,58,35.40
2010,04,02,00,59,29.00
2010,04,02,01,00,27.40
2010,04,02,01,01,30.60
2010,04,02,01,02,32.20
2010,04,02,01,03,32.20
2010,04,02,01,04,37.00
2010,04,02,01,05,38.60
2010,04,02,01,06,32.20
2010,04,02,01,07,30.60
2010,04,02,01,08,33.80
2010,04,02,01,09,29.00
2010,04,02,01,10,40.20
2010,04,02,01,11,29.00
2010,04,02,01,12,33.80
2010,04,02,01,13,25.70
2010,04,02,01,14,20.90
2010,04,02,01,15,29.00
2010,04,02,01,16,20.90
2010,04,02,01,17,33.80
2010,04,02,01,18,29.00
2010,04,02,01,19,35.40
2010,04,02,01,20,35.40
2010,04,02,01,21,40.20
2010,04,02,01,22,32.20
2010,04,02,01,23,29.00
2010,04,02,01,24,38.60
2010,04,02,01,25,33.80
2010,04,02,01,26,40.20
2010,04,02,01,27,46.70
2010,04,02,01,28,41.80
2010,04,02,01,29,37.00
2010,04,02,01,30,30.60
2010,04,02,01,31,33.80
2010,04,02,01,32,24.20
2010,04,02,01,33,38.60
2010,04,02,01,34,35.40
2010,04,02,01,35,22.50
2010,04,02,01,36,30.60
2010,04,02,01,37,43.50
2010,04,02,01,38,25.70
2010,04,02,01,39,41.80
2010,04,02,01,40,46.70
2010,04,02,01,41,32.20
2010,04,02,01,42,41.80
2010,04,02,01,43,25.70
2010,04,02,01,44,29.00
2010,04,02,01,45,37.00
2010,04,02,01,46,35.40
2010,04,02,01,47,27.40
2010,04,02,01,48,24.20
2010,04,02,01,49,40.20
2010,04,02,01,50,29.00
2010,04,02,01,51,30.60
2010,04,02,01,52,29.00
2010,04,02,01,53,29.00
2010,04,02,01,54,24.20
2010,04,02,01,55,27.40
2010,04,02,01,56,40.20
2010,04,02,01,57,43.50
2010,04,02,01,58,38.60
2010,04,02,01,59,33.80
2010,04,02,02,00,24.20
2010,04,02,02,01,37.00
2010,04,02,02,02,35.40
2010,04,02,02,03,37.00
2010,04,02,02,04,35.40
2010,04,02,02,05,37.00
2010,04,02,02,06,32.20
2010,04,02,02,07,43.50
2010,04,02,02,08,41.80
2010,04,02,02,09,40.20
2010,04,02,02,10,30.60
2010,04,02,02,11,30.60
2010,04,02,02,12,37.00
2010,04,02,02,13,46.70
2010,04,02,02,14,27.40
2010,04,02,02,15,35.40
2010,04,02,02,16,37.00
2010,04,02,02,17,25.70
2010,04,02,02,18,25.70
2010,04,02,02,19,29.00
2010,04,02,02,20,32.20
2010,04,02,02,21,37.00
2010,04,02,02,22,29.00
2010,04,02,02,23,37.00
2010,04,02,02,24,37.00
2010,04,02,02,25,35.40
2010,04,02,02,26,22.50
2010,04,02,02,27,46.70
2010,04,02,02,28,37.00
2010,04,02,02,29,27.40
2010,04,02,02,30,37.00
2010,04,02,02,31,38.60
2010,04,02,02,32,33.80
2010,04,02,02,33,43.50
2010,04,02,02,34,38.60
2010,04,02,02,35,35.40
2010,04,02,02,36,33.80
2010,04,02,02,37,27.40
2010,04,02,02,38,20.90
2010,04,02,02,39,35.40
2010,04,02,02,40,46.70
2010,04,02,02,41,38.60
2010,04,02,02,42,41.80
2010,04,02,02,43,30.60
2010,04,02,02,44,29.00
2010,04,02,02,45,29.00
2010,04,02,02,46,27.40
2010,04,02,02,47,38.60
2010,04,02,02,48,30.60
2010,04,02,02,49,35.40
2010,04,02,02,50,33.80
2010,04,02,02,51,35.40
2010,04,02,02,52,38.60
2010,04,02,02,53,46.70
2010,04,02,02,54,25.70
2010,04,02,02,55,33.80
2010,04,02,02,56,45.10
2010,04,02,02,57,19.30
2010,04,02,02,58,41.80
2010,04,02,02,59,35.40
2010,04,02,03,00,37.00
2010,04,02,03,01,40.20
2010,04,02,03,02,41.80
2010,04,02,03,03,37.00
2010,04,02,03,04,48.30
2010,04,02,03,05,48.30
2010,04,02,03,06,33.80
2010,04,02,03,07,35.40
2010,04,02,03,08,30.60
2010,04,02,03,09,30.60
2010,04,02,03,10,24.20
2010,04,02,03,11,19.30
2010,04,02,03,12,25.70
2010,04,02,03,13,38.60
2010,04,02,03,14,30.60
2010,04,02,03,15,35.40
2010,04,02,03,16,27.40
2010,04,02,03,17,27.40
2010,04,02,03,18,30.60
2010,04,02,03,19,40.20
2010,04,02,03,20,35.40
2010,04,02,03,21,32.20
2010,04,02,03,22,29.00
2010,04,02,03,23,27.40
2010,04,02,03,24,29.00
2010,04,02,03,25,33.80
2010,04,02,03,26,24.20
2010,04,02,03,27,22.50
2010,04,02,03,28,33.80
2010,04,02,03,29,30.60
2010,04,02,03,30,24.20
2010,04,02,03,31,16.10
2010,04,02,03,32,29.00
2010,04,02,03,33,25.70
2010,04,02,03,34,19.30
2010,04,02,03,35,22.50
2010,04,02,03,36,24.20
2010,04,02,03,37,20.90
2010,04,02,03,38,32.20
2010,04,02,03,39,24.20
2010,04,02,03,40,20.90
2010,04,02,03,41,16.10
2010,04,02,03,42,25.70
2010,04,02,03,43,19.30
2010,04,02,03,44,22.50
2010,04,02,03,45,17.70
2010,04,02,03,46,19.30
2010,04,02,03,47,17.70
2010,04,02,03,48,19.30
2010,04,02,03,49,14.50
2010,04,02,03,50,9.60
2010,04,02,03,51,16.10
2010,04,02,03,52,14.50
2010,04,02,03,53,17.70
2010,04,02,03,54,16.10
2010,04,02,03,55,20.90
2010,04,02,03,56,20.90
2010,04,02,03,57,17.70
2010,04,02,03,58,16.10
2010,04,02,03,59,11.30
2010,04,02,04,00,11.30
2010,04,02,04,01,9.60
2010,04,02,04,02,9.60
2010,04,02,04,03,11.30
2010,04,02,04,04,9.60
2010,04,02,04,05,9.60
2010,04,02,04,06,9.60
2010,04,02,04,07,8.10
2010,04,02,04,08,8.10
2010,04,02,04,09,8.10
2010,04,02,04,10,8.10
2010,04,02,04,11,6.40
2010,04,02,04,12,9.60
2010,04,02,04,13,8.10
2010,04,02,04,14,9.60
2010,04,02,04,15,9.60
2010,04,02,04,16,8.10
2010,04,02,04,17,9.60
2010,04,02,04,18,8.10
2010,04,02,04,19,6.40
2010,04,02,04,20,4.80
2010,04,02,04,21,1.60
2010,04,02,04,22,3.20
2010,04,02,04,23,1.60
2010,04,02,04,24,1.60
2010,04,02,04,25,4.80
2010,04,02,04,26,1.60
2010,04,02,04,27,3.20
2010,04,02,04,28,6.40
2010,04,02,04,29,3.20
2010,04,02,04,30,6.40
2010,04,02,04,31,20.90
2010,04,02,04,32,27.40
2010,04,02,04,33,32.20
2010,04,02,04,34,17.70
2010,04,02,04,35,24.20
2010,04,02,04,36,35.40
2010,04,02,04,37,22.50
2010,04,02,04,38,24.20
2010,04,02,04,39,41.80
2010,04,02,04,40,51.50
2010,04,02,04,41,48.30
2010,04,02,04,42,38.60
2010,04,02,04,43,37.00
2010,04,02,04,44,32.20
2010,04,02,04,45,43.50
2010,04,02,04,46,30.60
2010,04,02,04,47,30.60
2010,04,02,04,48,32.20
2010,04,02,04,49,32.20
2010,04,02,04,50,24.20
2010,04,02,04,51,41.80
2010,04,02,04,52,40.20
2010,04,02,04,53,40.20
2010,04,02,04,54,45.10
2010,04,02,04,55,35.40
2010,04,02,04,56,43.50
2010,04,02,04,57,33.80
2010,04,02,04,58,37.00
2010,04,02,04,59,48.30
2010,04,02,05,00,40.20
2010,04,02,05,01,49.90
2010,04,02,05,02,35.40
2010,04,02,05,03,48.30
2010,04,02,05,04,46.70
2010,04,02,05,05,38.60
2010,04,02,05,06,45.10
2010,04,02,05,07,41.80
2010,04,02,05,08,41.80
2010,04,02,05,09,51.50
2010,04,02,05,10,37.00
2010,04,02,05,11,45.10
2010,04,02,05,12,37.00
2010,04,02,05,13,38.60
2010,04,02,05,14,33.80
2010,04,02,05,15,37.00
2010,04,02,05,16,41.80
2010,04,02,05,17,49.90
2010,04,02,05,18,46.70
2010,04,02,05,19,40.20
2010,04,02,05,20,38.60
2010,04,02,05,21,45.10
2010,04,02,05,22,40.20
2010,04,02,05,23,38.60
2010,04,02,05,24,43.50
2010,04,02,05,25,43.50
2010,04,02,05,26,37.00
2010,04,02,05,27,43.50
2010,04,02,05,28,45.10
2010,04,02,05,29,45.10
2010,04,02,05,30,48.30
2010,04,02,05,31,41.80
2010,04,02,05,32,37.00
2010,04,02,05,33,32.20
2010,04,02,05,34,41.80
2010,04,02,05,35,35.40
2010,04,02,05,36,41.80
2010,04,02,05,37,33.80
2010,04,02,05,38,30.60
2010,04,02,05,39,41.80
2010,04,02,05,40,45.10
2010,04,02,05,41,45.10
2010,04,02,05,42,49.90
2010,04,02,05,43,59.50
2010,04,02,05,44,45.10
2010,04,02,05,45,53.10
2010,04,02,05,46,45.10
2010,04,02,05,47,45.10
2010,04,02,05,48,46.70
2010,04,02,05,49,61.20
2010,04,02,05,50,43.50
2010,04,02,05,51,54.70
2010,04,02,05,52,38.60
2010,04,02,05,53,61.20
2010,04,02,05,54,53.10
2010,04,02,05,55,45.10
2010,04,02,05,56,51.50
2010,04,02,05,57,43.50
2010,04,02,05,58,64.40
2010,04,02,05,59,53.10
2010,04,02,06,00,41.80
2010,04,02,06,01,45.10
2010,04,02,06,02,49.90
2010,04,02,06,03,43.50
2010,04,02,06,04,48.30
2010,04,02,06,05,43.50
2010,04,02,06,06,62.70
2010,04,02,06,07,49.90
2010,04,02,06,08,54.70
2010,04,02,06,09,57.90
2010,04,02,06,10,57.90
2010,04,02,06,11,64.40
2010,04,02,06,12,57.90
2010,04,02,06,13,48.30
2010,04,02,06,14,38.60
2010,04,02,06,15,67.60
2010,04,02,06,16,53.10
2010,04,02,06,17,54.70
2010,04,02,06,18,61.20
2010,04,02,06,19,56.30
2010,04,02,06,20,53.10
2010,04,02,06,21,59.50
2010,04,02,06,22,53.10
2010,04,02,06,23,64.40
2010,04,02,06,24,56.30
2010,04,02,06,25,48.30
2010,04,02,06,26,69.20
2010,04,02,06,27,64.40
2010,04,02,06,28,59.50
2010,04,02,06,29,53.10
2010,04,02,06,30,64.40
2010,04,02,06,31,62.70
2010,04,02,06,32,54.70
2010,04,02,06,33,56.30
2010,04,02,06,34,61.20
2010,04,02,06,35,74.00
2010,04,02,06,36,57.90
2010,04,02,06,37,51.50
2010,04,02,06,38,51.50
2010,04,02,06,39,61.20
2010,04,02,06,40,64.40
2010,04,02,06,41,49.90
2010,04,02,06,42,49.90
2010,04,02,06,43,51.50
2010,04,02,06,44,46.70
2010,04,02,06,45,40.20
2010,04,02,06,46,49.90
2010,04,02,06,47,64.40
2010,04,02,06,48,56.30
2010,04,02,06,49,51.50
2010,04,02,06,50,62.70
2010,04,02,06,51,57.90
2010,04,02,06,52,64.40
2010,04,02,06,53,64.40
2010,04,02,06,54,62.70
2010,04,02,06,55,62.70
2010,04,02,06,56,67.60
2010,04,02,06,57,56.30
2010,04,02,06,58,62.70
2010,04,02,06,59,75.60
2010,04,02,07,00,62.70
2010,04,02,07,01,61.20
2010,04,02,07,02,56.30
2010,04,02,07,03,61.20
2010,04,02,07,04,57.90
2010,04,02,07,05,69.20
2010,04,02,07,06,61.20
2010,04,02,07,07,59.50
2010,04,02,07,08,49.90
2010,04,02,07,09,53.10
2010,04,02,07,10,54.70
2010,04,02,07,11,61.20
2010,04,02,07,12,72.40
2010,04,02,07,13,74.00
2010,04,02,07,14,70.80
2010,04,02,07,15,46.70
2010,04,02,07,16,57.90
2010,04,02,07,17,62.70
2010,04,02,07,18,69.20
2010,04,02,07,19,59.50
2010,04,02,07,20,69.20
2010,04,02,07,21,54.70
2010,04,02,07,22,61.20
2010,04,02,07,23,62.70
2010,04,02,07,24,61.20
2010,04,02,07,25,49.90
2010,04,02,07,26,57.90
2010,04,02,07,27,56.30
2010,04,02,07,28,56.30
2010,04,02,07,29,48.30
2010,04,02,07,30,51.50
2010,04,02,07,31,51.50
2010,04,02,07,32,57.90
2010,04,02,07,33,48.30
2010,04,02,07,34,56.30
2010,04,02,07,35,67.60
2010,04,02,07,36,54.70
2010,04,02,07,37,62.70
2010,04,02,07,38,57.90
2010,04,02,07,39,56.30
2010,04,02,07,40,61.20
2010,04,02,07,41,59.50
2010,04,02,07,42,62.70
2010,04,02,07,43,62.70
2010,04,02,07,44,62.70
2010,04,02,07,45,59.50
2010,04,02,07,46,54.70
2010,04,02,07,47,61.20
2010,04,02,07,48,66.00
2010,04,02,07,49,56.30
2010,04,02,07,50,59.50
2010,04,02,07,51,48.30
2010,04,02,07,52,48.30
2010,04,02,07,53,51.50
2010,04,02,07,54,38.60
2010,04,02,07,55,49.90
2010,04,02,07,56,33.80
2010,04,02,07,57,43.50
2010,04,02,07,58,48.30
2010,04,02,07,59,54.70
2010,04,02,08,00,56.30
2010,04,02,08,01,62.70
2010,04,02,08,02,53.10
2010,04,02,08,03,45.10
2010,04,02,08,04,48.30
2010,04,02,08,05,56.30
2010,04,02,08,06,53.10
2010,04,02,08,07,53.10
2010,04,02,08,08,61.20
2010,04,02,08,09,53.10
2010,04,02,08,10,53.10
2010,04,02,08,11,62.70
2010,04,02,08,12,53.10
2010,04,02,08,13,41.80
2010,04,02,08,14,51.50
2010,04,02,08,15,43.50
2010,04,02,08,16,59.50
2010,04,02,08,17,62.70
2010,04,02,08,18,59.50
2010,04,02,08,19,53.10
2010,04,02,08,20,53.10
2010,04,02,08,21,62.70
2010,04,02,08,22,43.50
2010,04,02,08,23,56.30
2010,04,02,08,24,40.20
2010,04,02,08,25,54.70
2010,04,02,08,26,51.50
2010,04,02,08,27,56.30
2010,04,02,08,28,56.30
2010,04,02,08,29,56.30
2010,04,02,08,30,56.30
2010,04,02,08,31,43.50
2010,04,02,08,32,49.90
2010,04,02,08,33,46.70
2010,04,02,08,34,48.30
2010,04,02,08,35,48.30
2010,04,02,08,36,49.90
2010,04,02,08,37,51.50
2010,04,02,08,38,53.10
2010,04,02,08,39,35.40
2010,04,02,08,40,30.60
2010,04,02,08,41,54.70
2010,04,02,08,42,53.10
2010,04,02,08,43,62.70
2010,04,02,08,44,51.50
2010,04,02,08,45,53.10
2010,04,02,08,46,41.80
2010,04,02,08,47,51.50
2010,04,02,08,48,46.70
2010,04,02,08,49,51.50
2010,04,02,08,50,46.70
2010,04,02,08,51,49.90
2010,04,02,08,52,48.30
2010,04,02,08,53,61.20
2010,04,02,08,54,53.10
2010,04,02,08,55,46.70
2010,04,02,08,56,48.30
2010,04,02,08,57,61.20
2010,04,02,08,58,53.10
2010,04,02,08,59,53.10
2010,04,02,09,00,54.70
2010,04,02,09,01,43.50
2010,04,02,09,02,38.60
2010,04,02,09,03,41.80
2010,04,02,09,04,61.20
2010,04,02,09,05,41.80
2010,04,02,09,06,66.00
2010,04,02,09,07,62.70
2010,04,02,09,08,54.70
2010,04,02,09,09,49.90
2010,04,02,09,10,57.90
2010,04,02,09,11,59.50
2010,04,02,09,12,51.50
2010,04,02,09,13,53.10
2010,04,02,09,14,43.50
2010,04,02,09,15,49.90
2010,04,02,09,16,38.60
2010,04,02,09,17,53.10
2010,04,02,09,18,49.90
2010,04,02,09,19,51.50
2010,04,02,09,20,48.30
2010,04,02,09,21,51.50
2010,04,02,09,22,49.90
2010,04,02,09,23,32.20
2010,04,02,09,24,53.10
2010,04,02,09,25,53.10
2010,04,02,09,26,61.20
2010,04,02,09,27,49.90
2010,04,02,09,28,67.60
2010,04,02,09,29,56.30
2010,04,02,09,30,54.70
2010,04,02,09,31,62.70
2010,04,02,09,32,53.10
2010,04,02,09,33,53.10
2010,04,02,09,34,59.50
2010,04,02,09,35,49.90
2010,04,02,09,36,67.60
2010,04,02,09,37,61.20
2010,04,02,09,38,61.20
2010,04,02,09,39,61.20
2010,04,02,09,40,61.20
2010,04,02,09,41,64.40
2010,04,02,09,42,54.70
2010,04,02,09,43,49.90
2010,04,02,09,44,51.50
2010,04,02,09,45,57.90
2010,04,02,09,46,46.70
2010,04,02,09,47,41.80
2010,04,02,09,48,46.70
2010,04,02,09,49,62.70
2010,04,02,09,50,53.10
2010,04,02,09,51,49.90
2010,04,02,09,52,51.50
2010,04,02,09,53,54.70
2010,04,02,09,54,56.30
2010,04,02,09,55,54.70
2010,04,02,09,56,54.70
2010,04,02,09,57,48.30
2010,04,02,09,58,57.90
2010,04,02,09,59,74.00
2010,04,02,10,00,62.70
2010,04,02,10,01,74.00
2010,04,02,10,02,64.40
2010,04,02,10,03,61.20
2010,04,02,10,04,45.10
2010,04,02,10,05,61.20
2010,04,02,10,06,59.50
2010,04,02,10,07,70.80
2010,04,02,10,08,57.90
2010,04,02,10,09,57.90
2010,04,02,10,10,53.10
2010,04,02,10,11,57.90
2010,04,02,10,12,62.70
2010,04,02,10,13,48.30
2010,04,02,10,14,53.10
2010,04,02,10,15,53.10
2010,04,02,10,16,41.80
2010,04,02,10,17,54.70
2010,04,02,10,18,72.40
2010,04,02,10,19,74.00
2010,04,02,10,20,66.00
2010,04,02,10,21,74.00
2010,04,02,10,22,59.50
2010,04,02,10,23,54.70
2010,04,02,10,24,59.50
2010,04,02,10,25,54.70
2010,04,02,10,26,59.50
2010,04,02,10,27,67.60
2010,04,02,10,28,45.10
2010,04,02,10,29,48.30
2010,04,02,10,30,61.20
2010,04,02,10,31,59.50
2010,04,02,10,32,49.90
2010,04,02,10,33,59.50
2010,04,02,10,34,61.20
2010,04,02,10,35,53.10
2010,04,02,10,36,53.10
2010,04,02,10,37,51.50
2010,04,02,10,38,64.40
2010,04,02,10,39,61.20
2010,04,02,10,40,61.20
2010,04,02,10,41,51.50
2010,04,02,10,42,61.20
2010,04,02,10,43,53.10
2010,04,02,10,44,53.10
2010,04,02,10,45,61.20
2010,04,02,10,46,49.90
2010,04,02,10,47,61.20
2010,04,02,10,48,62.70
2010,04,02,10,49,69.20
2010,04,02,10,50,56.30
2010,04,02,10,51,67.60
2010,04,02,10,52,54.70
2010,04,02,10,53,57.90
2010,04,02,10,54,66.00
2010,04,02,10,55,67.60
2010,04,02,10,56,74.00
2010,04,02,10,57,57.90
2010,04,02,10,58,77.30
2010,04,02,10,59,64.40
2010,04,02,11,00,56.30
2010,04,02,11,01,64.40
2010,04,02,11,02,45.10
2010,04,02,11,03,57.90
2010,04,02,11,04,61.20
2010,04,02,11,05,59.50
2010,04,02,11,06,59.50
2010,04,02,11,07,43.50
2010,04,02,11,08,37.00
2010,04,02,11,09,37.00
2010,04,02,11,10,37.00
2010,04,02,11,11,37.00
2010,04,02,11,12,37.00
2010,04,02,11,13,37.00
2010,04,02,11,14,64.40
2010,04,02,11,15,54.70
2010,04,02,11,16,57.90
2010,04,02,11,17,54.70
2010,04,02,11,18,72.40
2010,04,02,11,19,64.40
2010,04,02,11,20,61.20
2010,04,02,11,21,67.60
2010,04,02,11,22,70.80
2010,04,02,11,23,64.40
2010,04,02,11,24,40.20
2010,04,02,11,25,70.80
2010,04,02,11,26,64.40
2010,04,02,11,27,70.80
2010,04,02,11,28,53.10
2010,04,02,11,29,53.10
2010,04,02,11,30,54.70
2010,04,02,11,31,78.80
2010,04,02,11,32,62.70
2010,04,02,11,33,48.30
2010,04,02,11,34,49.90
2010,04,02,11,35,64.40
2010,04,02,11,36,61.20
2010,04,02,11,37,62.70
2010,04,02,11,38,69.20
2010,04,02,11,39,61.20
2010,04,02,11,40,53.10
2010,04,02,11,41,59.50
2010,04,02,11,42,57.90
2010,04,02,11,43,46.70
2010,04,02,11,44,64.40
2010,04,02,11,45,75.60
2010,04,02,11,46,48.30
2010,04,02,11,47,62.70
2010,04,02,11,48,62.70
2010,04,02,11,49,64.40
2010,04,02,11,50,53.10
2010,04,02,11,51,57.90
2010,04,02,11,52,62.70
2010,04,02,11,53,66.00
2010,04,02,11,54,59.50
2010,04,02,11,55,70.80
2010,04,02,11,56,75.60
2010,04,02,11,57,53.10
2010,04,02,11,58,54.70
2010,04,02,11,59,59.50
2010,04,02,12,00,54.70
2010,04,02,12,01,57.90
2010,04,02,12,02,54.70
2010,04,02,12,03,54.70
2010,04,02,12,04,45.10
2010,04,02,12,05,57.90
2010,04,02,12,06,56.30
2010,04,02,12,07,53.10
2010,04,02,12,08,53.10
2010,04,02,12,09,56.30
2010,04,02,12,10,59.50
2010,04,02,12,11,54.70
2010,04,02,12,12,57.90
2010,04,02,12,13,51.50
2010,04,02,12,14,64.40
2010,04,02,12,15,51.50
2010,04,02,12,16,56.30
2010,04,02,12,17,51.50
2010,04,02,12,18,56.30
2010,04,02,12,19,54.70
2010,04,02,12,20,64.40
2010,04,02,12,21,48.30
2010,04,02,12,22,49.90
2010,04,02,12,23,53.10
2010,04,02,12,24,64.40
2010,04,02,12,25,57.90
2010,04,02,12,26,53.10
2010,04,02,12,27,51.50
2010,04,02,12,28,41.80
2010,04,02,12,29,46.70
2010,04,02,12,30,64.40
2010,04,02,12,31,49.90
2010,04,02,12,32,46.70
2010,04,02,12,33,53.10
2010,04,02,12,34,54.70
2010,04,02,12,35,46.70
2010,04,02,12,36,43.50
2010,04,02,12,37,46.70
2010,04,02,12,38,41.80
2010,04,02,12,39,51.50
2010,04,02,12,40,53.10
2010,04,02,12,41,49.90
2010,04,02,12,42,46.70
2010,04,02,12,43,46.70
2010,04,02,12,44,53.10
2010,04,02,12,45,45.10
2010,04,02,12,46,53.10
2010,04,02,12,47,49.90
2010,04,02,12,48,48.30
2010,04,02,12,49,43.50
2010,04,02,12,50,45.10
2010,04,02,12,51,41.80
2010,04,02,12,52,45.10
2010,04,02,12,53,40.20
2010,04,02,12,54,40.20
2010,04,02,12,55,38.60
2010,04,02,12,56,53.10
2010,04,02,12,57,43.50
2010,04,02,12,58,46.70
2010,04,02,12,59,37.00
2010,04,02,13,00,48.30
2010,04,02,13,01,53.10
2010,04,02,13,02,49.90
2010,04,02,13,03,51.50
2010,04,02,13,04,48.30
2010,04,02,13,05,37.00
2010,04,02,13,06,57.90
2010,04,02,13,07,38.60
2010,04,02,13,08,59.50
2010,04,02,13,09,49.90
2010,04,02,13,10,45.10
2010,04,02,13,11,51.50
2010,04,02,13,12,49.90
2010,04,02,13,13,40.20
2010,04,02,13,14,54.70
2010,04,02,13,15,45.10
2010,04,02,13,16,45.10
2010,04,02,13,17,38.60
2010,04,02,13,18,49.90
2010,04,02,13,19,48.30
2010,04,02,13,20,48.30
2010,04,02,13,21,43.50
2010,04,02,13,22,43.50
2010,04,02,13,23,51.50
2010,04,02,13,24,41.80
2010,04,02,13,25,48.30
2010,04,02,13,26,38.60
2010,04,02,13,27,61.20
2010,04,02,13,28,37.00
2010,04,02,13,29,38.60
2010,04,02,13,30,41.80
2010,04,02,13,31,38.60
2010,04,02,13,32,43.50
2010,04,02,13,33,40.20
2010,04,02,13,34,43.50
2010,04,02,13,35,43.50
2010,04,02,13,36,48.30
2010,04,02,13,37,40.20
2010,04,02,13,38,40.20
2010,04,02,13,39,41.80
2010,04,02,13,40,49.90
2010,04,02,13,41,46.70
2010,04,02,13,42,45.10
2010,04,02,13,43,41.80
2010,04,02,13,44,43.50
2010,04,02,13,45,37.00
2010,04,02,13,46,35.40
2010,04,02,13,47,41.80
2010,04,02,13,48,41.80
2010,04,02,13,49,45.10
2010,04,02,13,50,51.50
2010,04,02,13,51,33.80
2010,04,02,13,52,38.60
2010,04,02,13,53,35.40
2010,04,02,13,54,43.50
2010,04,02,13,55,35.40
2010,04,02,13,56,30.60
2010,04,02,13,57,33.80
2010,04,02,13,58,53.10
2010,04,02,13,59,35.40
2010,04,02,14,00,32.20
2010,04,02,14,01,45.10
2010,04,02,14,02,46.70
2010,04,02,14,03,38.60
2010,04,02,14,04,46.70
2010,04,02,14,05,29.00
2010,04,02,14,06,49.90
2010,04,02,14,07,37.00
2010,04,02,14,08,35.40
2010,04,02,14,09,33.80
2010,04,02,14,10,27.40
2010,04,02,14,11,45.10
2010,04,02,14,12,35.40
2010,04,02,14,13,25.70
2010,04,02,14,14,41.80
2010,04,02,14,15,32.20
2010,04,02,14,16,49.90
2010,04,02,14,17,37.00
2010,04,02,14,18,35.40
2010,04,02,14,19,40.20
2010,04,02,14,20,40.20
2010,04,02,14,21,35.40
2010,04,02,14,22,27.40
2010,04,02,14,23,32.20
2010,04,02,14,24,40.20
2010,04,02,14,25,38.60
2010,04,02,14,26,45.10
2010,04,02,14,27,37.00
2010,04,02,14,28,33.80
2010,04,02,14,29,45.10
2010,04,02,14,30,43.50
2010,04,02,14,31,45.10
2010,04,02,14,32,40.20
2010,04,02,14,33,32.20
2010,04,02,14,34,35.40
2010,04,02,14,35,30.60
2010,04,02,14,36,38.60
2010,04,02,14,37,37.00
2010,04,02,14,38,32.20
2010,04,02,14,39,32.20
2010,04,02,14,40,35.40
2010,04,02,14,41,46.70
2010,04,02,14,42,40.20
2010,04,02,14,43,46.70
2010,04,02,14,44,40.20
2010,04,02,14,45,32.20
2010,04,02,14,46,32.20
2010,04,02,14,47,35.40
2010,04,02,14,48,35.40
2010,04,02,14,49,38.60
2010,04,02,14,50,33.80
2010,04,02,14,51,29.00
2010,04,02,14,52,32.20
2010,04,02,14,53,38.60
2010,04,02,14,54,29.00
2010,04,02,14,55,33.80
2010,04,02,14,56,30.60
2010,04,02,14,57,27.40
2010,04,02,14,58,24.20
2010,04,02,14,59,24.20
2010,04,02,15,00,33.80
2010,04,02,15,01,35.40
2010,04,02,15,02,30.60
2010,04,02,15,03,40.20
2010,04,02,15,04,32.20
2010,04,02,15,05,29.00
2010,04,02,15,06,30.60
2010,04,02,15,07,33.80
2010,04,02,15,08,29.00
2010,04,02,15,09,35.40
2010,04,02,15,10,45.10
2010,04,02,15,11,32.20
2010,04,02,15,12,40.20
2010,04,02,15,13,30.60
2010,04,02,15,14,27.40
2010,04,02,15,15,29.00
2010,04,02,15,16,45.10
2010,04,02,15,17,49.90
2010,04,02,15,18,53.10
2010,04,02,15,19,46.70
2010,04,02,15,20,37.00
2010,04,02,15,21,33.80
2010,04,02,15,22,40.20
2010,04,02,15,23,40.20
2010,04,02,15,24,48.30
2010,04,02,15,25,43.50
2010,04,02,15,26,38.60
2010,04,02,15,27,27.40
2010,04,02,15,28,24.20
2010,04,02,15,29,27.40
2010,04,02,15,30,38.60
2010,04,02,15,31,37.00
2010,04,02,15,32,29.00
2010,04,02,15,33,33.80
2010,04,02,15,34,27.40
2010,04,02,15,35,27.40
2010,04,02,15,36,37.00
2010,04,02,15,37,33.80
2010,04,02,15,38,30.60
2010,04,02,15,39,27.40
2010,04,02,15,40,22.50
2010,04,02,15,41,24.20
2010,04,02,15,42,37.00
2010,04,02,15,43,29.00
2010,04,02,15,44,27.40
2010,04,02,15,45,32.20
2010,04,02,15,46,37.00
2010,04,02,15,47,25.70
2010,04,02,15,48,25.70
2010,04,02,15,49,24.20
2010,04,02,15,50,25.70
2010,04,02,15,51,30.60
2010,04,02,15,52,38.60
2010,04,02,15,53,24.20
2010,04,02,15,54,37.00
2010,04,02,15,55,33.80
2010,04,02,15,56,33.80
2010,04,02,15,57,29.00
2010,04,02,15,58,33.80
2010,04,02,15,59,24.20
2010,04,02,16,00,20.90
2010,04,02,16,01,32.20
2010,04,02,16,02,33.80
2010,04,02,16,03,24.20
2010,04,02,16,04,19.30
2010,04,02,16,05,27.40
2010,04,02,16,06,22.50
2010,04,02,16,07,25.70
2010,04,02,16,08,29.00
2010,04,02,16,09,24.20
2010,04,02,16,10,22.50
2010,04,02,16,11,27.40
2010,04,02,16,12,30.60
2010,04,02,16,13,25.70
2010,04,02,16,14,29.00
2010,04,02,16,15,29.00
2010,04,02,16,16,27.40
2010,04,02,16,17,22.50
2010,04,02,16,18,32.20
2010,04,02,16,19,33.80
2010,04,02,16,20,24.20
2010,04,02,16,21,27.40
2010,04,02,16,22,25.70
2010,04,02,16,23,29.00
2010,04,02,16,24,22.50
2010,04,02,16,25,25.70
2010,04,02,16,26,30.60
2010,04,02,16,27,38.60
2010,04,02,16,28,38.60
2010,04,02,16,29,24.20
2010,04,02,16,30,29.00
2010,04,02,16,31,30.60
2010,04,02,16,32,29.00
2010,04,02,16,33,30.60
2010,04,02,16,34,30.60
2010,04,02,16,35,38.60
2010,04,02,16,36,25.70
2010,04,02,16,37,29.00
2010,04,02,16,38,25.70
2010,04,02,16,39,29.00
2010,04,02,16,40,22.50
2010,04,02,16,41,25.70
2010,04,02,16,42,27.40
2010,04,02,16,43,33.80
2010,04,02,16,44,37.00
2010,04,02,16,45,22.50
2010,04,02,16,46,33.80
2010,04,02,16,47,25.70
2010,04,02,16,48,32.20
2010,04,02,16,49,20.90
2010,04,02,16,50,22.50
2010,04,02,16,51,25.70
2010,04,02,16,52,20.90
2010,04,02,16,53,30.60
2010,04,02,16,54,35.40
2010,04,02,16,55,41.80
2010,04,02,16,56,25.70
2010,04,02,16,57,25.70
2010,04,02,16,58,32.20
2010,04,02,16,59,27.40
2010,04,02,17,00,29.00
2010,04,02,17,01,30.60
2010,04,02,17,02,37.00
2010,04,02,17,03,25.70
2010,04,02,17,04,24.20
2010,04,02,17,05,24.20
2010,04,02,17,06,32.20
2010,04,02,17,07,33.80
2010,04,02,17,08,24.20
2010,04,02,17,09,25.70
2010,04,02,17,10,19.30
2010,04,02,17,11,25.70
2010,04,02,17,12,38.60
2010,04,02,17,13,16.10
2010,04,02,17,14,19.30
2010,04,02,17,15,29.00
2010,04,02,17,16,24.20
2010,04,02,17,17,24.20
2010,04,02,17,18,30.60
2010,04,02,17,19,25.70
2010,04,02,17,20,30.60